Location: Nassau
(25.0830°N, 77.3500°W)
Time: 18:28:07
(UTC-04:00)

ISS - All Passes

Search period start: 01 August 2014 00:00
Search period end: 11 August 2014 00:00
Orbit: 411 x 419 km, 51.6° (Epoch: 01 August)

Date Brightness Start Highest point End Pass type
(mag) Time Alt. Az. Time Alt. Az. Time Alt. Az.
01 Aug - 06:12:48 10° NNW 06:15:56 36° NE 06:19:04 10° ESE visible
01 Aug - 07:51:32 10° WSW 07:52:20 11° SW 07:53:09 10° SW daylight
01 Aug - 21:12:02 10° SW 21:15:18 71° SE 21:18:37 10° NE visible
02 Aug - 05:24:33 10° N 05:27:01 19° NE 05:29:29 10° E visible
02 Aug - 07:00:58 10° WNW 07:03:38 22° SW 07:06:19 10° S daylight
02 Aug - 20:23:37 10° S 20:26:33 30° SE 20:29:30 10° ENE visible
02 Aug - 22:01:20 10° WNW 22:03:16 15° NW 22:05:13 10° N visible
03 Aug - 04:37:18 10° NNE 04:38:00 11° NE 04:38:43 10° NE visible
03 Aug - 06:11:38 10° NW 06:14:53 49° SW 06:18:08 10° SSE visible
03 Aug - 19:35:58 10° SSE 19:37:49 14° SE 19:39:42 10° E daylight
03 Aug - 21:11:26 10° WSW 21:14:18 27° NW 21:17:11 10° NNE visible
04 Aug - 05:22:44 10° NW 05:26:05 70° NE 05:29:24 10° SE visible
04 Aug - 20:22:09 10° SW 20:25:24 58° NW 20:28:41 10° NNE visible
05 Aug - 04:34:09 10° NNW 04:37:11 31° NE 04:40:13 10° ESE visible
05 Aug - 06:12:08 10° W 06:13:38 13° SW 06:15:07 10° SSW visible
05 Aug - 19:33:19 10° SSW 19:36:34 59° SE 19:39:50 10° NE daylight
06 Aug - 03:45:58 10° N 03:48:13 17° NE 03:50:28 10° E night (unlit)
06 Aug - 05:22:03 10° WNW 05:24:53 26° SW 05:27:44 10° S visible
06 Aug - 18:44:59 10° S 18:47:47 26° SE 18:50:35 10° ENE daylight
06 Aug - 20:22:15 10° W 20:24:27 16° NW 20:26:39 10° N visible
07 Aug - 04:32:48 10° NW 04:36:06 59° SW 04:39:23 10° SSE night (unlit)
07 Aug - 17:57:37 10° SSE 17:59:02 12° SE 18:00:27 10° E daylight
07 Aug - 19:32:29 10° WSW 19:35:28 31° NW 19:38:27 10° NNE daylight
08 Aug - 03:43:56 10° NNW 03:47:14 58° NE 03:50:32 10° SE night (unlit)
08 Aug - 18:43:16 10° SW 18:46:33 69° NW 18:49:51 10° NE daylight
09 Aug - 02:55:23 10° NNW 02:58:18 27° NE 03:01:12 10° ESE night (unlit)
09 Aug - 04:32:51 10° W 04:34:47 15° SW 04:36:42 10° SSW night (unlit)
09 Aug - 17:54:30 10° SSW 17:57:41 49° SE 18:00:54 10° NE daylight
09 Aug - 19:34:05 10° NW 19:34:34 10° NW 19:35:04 10° NNW daylight
10 Aug - 02:07:17 10° N 02:09:17 15° NE 02:11:16 10° ENE night (unlit)
10 Aug - 03:43:01 10° WNW 03:46:00 30° SW 03:48:59 10° S night (unlit)
10 Aug - 17:06:16 10° S 17:08:53 22° SE 17:11:30 10° ENE daylight
10 Aug - 18:43:05 10° W 18:45:30 19° NW 18:47:54 10° N daylight
